THOR ABLESTAR DEB, 225

Orbit data source: Space-Track

THOR ABLESTAR DEB, 225 is space debris in LEO originally from a launch on Thu, 29 Jun 1961 UTC launched from the Air Force Eastern Test Range (AFETR). Debris objects in space refer to the collection of defunct objects orbiting the Earth. Examples of debris include non-operational satellites, rocket bodies, and fragments generated from explosions, collisions, or faulty payload assembly.

Loading next visibility...
Identifier
225, 1961-015BM
Orbit
LEO
Country
Flag of USUS
Related business
Manufacturer
Unknown
Mission
Spacecraft
Bus & Motor
Unknown
Mass
Unknown
Launch date (UTC)
1961-06-29 (65 years ago)
Launch vehicle
Unknown
Launch site
Air Force Eastern Test Range (AFETR)
Object type
Payload
Rocket body
Debris
Shape & HBR
Unknown shape, 0.1 m
Radar Cross Section
Medium (>0.1 m² and <1 m²)

Expand to show TLE details & history
Last TLE update: 11 hours ago

TLE from 11 hours ago
0 THOR ABLESTAR DEB
1   225U 61015BM  26253.44121388  .00001026  00000-0  34453-3 0  9992
2   225  66.7973  22.0813 0096869 156.1648 204.3987 14.38636273369996
Epoch: 2026-09-10T10:35Z
TLE epoch observation values (Epoch: 2026-09-10T10:35:20.879Z)
Latitude
-0.00003°
Longitude
-126.23458°
Altitude
828.249 km
Speed
7.406 km/s
True Right ascension
01h 28m 19s
True Declination
0° 00' 00"
Sunlit
Object was in full shadow at epoch
Visualization orbit readout
Latitude
Unknown
Longitude
Unknown
Altitude
Unknown
Speed
Unknown
Apparent Right ascension
Unknown
Apparent Declination
Unknown
Sunlit
N/A
Visualization observer readout
Local Sidereal Time
14:16:03
Azimuth
Unknown
Elevation
Unknown
Doppler factor
Unknown
Orbital elements
Apogee altitude
830.524 km
Perigee altitude
692.205 km
Semi-major axis
7,139.502 km
Eccentricity
0.00969
Inclination
66.7973°
RAAN
22.0813°
Arg. of periapsis
156.1648°
True anomaly
203.94517°
Mean anomaly
204.3987°
Eccentric anomaly
204.17144°
Mean motion
3.59784 °/min
Orbital period
100.06 mins
BSTAR
0.00034453
Loading maneuver chart data...
Computing Atmospheric mass density...

Documentation

Showing up to 5 results
|